www.pogodaiklimat.ru

Погода и климат >> Архив погоды >> Россия >> Адыгея >> Даховская


ПОГОДА в Даховской

  • Прогноз погоды в Даховской
  • Монитор погоды в Даховской

АРХИВ ПОГОДЫ в Даховской

Время (UTC), дата Ветер
(напр.,м/с)
 
Видим.   Явления Облачность Т
(С)
Тd
(С)
f
(%)
Тe
(С)
Тes
(С)
Комфортность P
(гПа)
Po
(гПа)
Тmin
(С)
Tmax
(С)
R
(мм)
R24
(мм)
S
(см)
03 13.06 штиль 0 50 км 10/6 1000 м
[Sc Cs]
+15.2 +15.2 100 +15 +15 1011.0 953.1 +13.7
06 13.06 З 1 10 км гроза, ливневой дождь 10/10 1000 м
[Cb calv]
+17.5 +15.0 85 +19 +19 1011.0 953.6
09 13.06 штиль 0 10 км гроза, ливневой дождь 10/10 1000 м
[Cb calv]
+18.7 +18.7 100 +20 +20 1011.9 954.7
12 13.06 С 2 20 км {гроза, ливн. осадки} 10/10 600 м
[Cb cap]
+20.4 +16.5 78 +24 +24 комфорт 1011.8 954.9
15 13.06 штиль 0 20 км {ливн. осадки} 6/0
[Ac cast Ci]
+23.7 +17.1 67 +28 +30 душно 1010.4 954.2 +23.7 2
18 13.06 штиль 0 20 км {ливн. осадки} 10/10 1000 м
[Sc]
+18.3 +18.3 100 +19 +19 1012.4 955.1
21 13.06 В 1 20 км 8/0
[Ac cast Cs]
+16.1 +16.1 100 +17 +17 1012.1 954.4
00 14.06 ЮВ 1 20 км 10/10 1000 м
[Sc]
+15.6 +15.6 100 +16 +16 1013.1 955.2
03 14.06 штиль 0 50 км 3/0
[Ac cast Ci fib]
+14.5 +14.5 100 +14 +15 1013.8 955.6 +14.1
06 14.06 СЗ 1 50 км ясно +22.9 +16.3 66 +27 +40 душно 1011.7 955.3
09 14.06 СВ 1 50 км 1/0
[Ci fib]
+29.1 +13.5 38 +31 +53 опасность
солнечного
удара
1010.8 955.5
12 14.06 В 1 20 км 4/4 1000 м
[Cu med, cong]
+29.9 +15.2 41 +32 +42 жарко 1010.2 955.1
15 14.06 ЮЗ 1
{11}
10 км гроза, ливневой дождь 10/10 600 м
[Cb calv]
+20.2 +17.0 82 +24 +24 комфорт 1013.5 956.4 +30.1 1
18 14.06 штиль 0 20 км {гроза, ливн. осадки} 9/0
[Ac cast Cs]
+17.4 +17.0 97 +17 +17 1013.5 955.8
21 14.06 ЮВ 1 50 км 4/0
[Ac cast]
+15.8 +15.8 100 +16 +16 1013.9 956.0
00 15.06 В 1 50 км 1/0
[Ci fib]
+14.4 +14.4 100 +15 +15 1013.6 955.3
03 15.06 В 1 50 км 1/0
[Ci fib]
+14.0 +14.0 100 +14 +16 1014.0 955.7 +13.5 0.8
06 15.06 ЮЗ 1 50 км 3/0
[Ci fib]
+21.7 +16.2 71 +25 +38 комфорт 1011.3 954.7
09 15.06 С 2 50 км 6/0
[Ac cast Ci fib]
+28.5 +16.8 49 +32 +46 душно 1009.1 953.8
12 15.06 С 1 20 км гроза без осадков 9/9 1000 м
[Cb calv]
+27.6 +16.3 50 +31 +33 душно 1008.8 957.4
15 15.06 ЮЗ 2 50 км гроза без осадков {ливн. осадки} 10/10 1000 м
[Cb calv]
+20.4 +16.4 78 +24 +24 комфорт 1010.2 953.4 +30.4 0.3
18 15.06 штиль 0 50 км {гроза, ливн. осадки} 10/0
[Cs]
+17.9 +17.9 100 +18 +18 1010.5 953.3
21 15.06 штиль 0 50 км 10/0
[Cs]
+15.4 +15.4 100 +15 +15 1011.6 953.7
00 16.06 штиль 0 50 км 10/10 1000 м
[Sc]
+13.6 +13.6 100 +13 +13 1011.5 953.2
03 16.06 штиль 0 50 км ясно +13.2 +13.2 100 +13 +14 1011.7 953.3 +12.9
06 16.06 З 1 50 км ясно +22.5 +15.0 63 +26 +39 жарко 1009.3 952.9
09 16.06 С 3 50 км 1/1 1000 м
[Cu med, cong]
+29.3 +14.6 41 +32 +46 душно 1007.4 952.4
12 16.06 Ю 1 50 км гроза без осадков 10/10 1000 м
[Cb calv]
+24.8 +17.7 65 +29 +29 душно 1008.6 952.7
15 16.06 штиль 0 10 км гроза, ливневой дождь 10/10 1000 м
[Cb calv]
+18.5 +18.5 100 +19 +19 1010.6 953.4 +30.2 0.5
18 16.06 штиль 0 50 км {гроза, ливн. осадки} 6/0
[Ci]
+16.5 +16.5 100 +16 +16 1010.0 952.4
21 16.06 ЮВ 1 50 км ясно +14.4 +14.4 100 +15 +15 1010.9 952.8
00 17.06 ЮВ 1 50 км 1/0
[Ac cast]
+13.0 +13.0 100 +13 +13 1012.0 953.6
03 17.06 штиль 0 50 км 3/0
[Ci fib]
+12.6 +12.6 100 +12 +13 1012.0 953.5 +12.6 0.5
06 17.06 СЗ 1 50 км ясно +21.4 +15.6 70 +25 +38 комфорт 1009.8 953.2
09 17.06 З 1 50 км 1/1 1000 м
[Cu med, cong]
+29.5 +15.4 42 +32 +52 опасность
солнечного
удара
1007.4 952.3
12 17.06 ЮЗ 1 10 км гроза, ливневой дождь 10/10 600 м
[Cb calv]
+21.1 +15.6 71 +24 +24 комфорт 1009.6 952.9
15 17.06 штиль 0 50 км в посл. час гроза {ливн. осадки} 10/0
[Ac cast Cs]
+23.2 +18.0 73 +29 +31 душно 1008.9 952.7 +31.0 0.3
18 17.06 штиль 0 50 км {гроза, ливн. осадки} ясно +17.7 +17.7 100 +18 +18 1010.9 953.6
21 17.06 штиль 0 50 км ясно +15.4 +15.4 100 +15 +15 1011.3 953.4
00 18.06 штиль 0 50 км ясно +13.8 +13.8 100 +13 +13 1011.6 953.3
03 18.06 Ю 1 50 км ясно +13.8 +13.8 100 +14 +15 1012.4 954.1 +12.9
06 18.06 штиль 0 50 км ясно +22.0 +14.9 64 +25 +40 комфорт 1010.1 953.6
09 18.06 СВ 1 50 км 1/0 1500 м
[Cu hum]
+29.4 +14.3 40 +31 +53 опасность
солнечного
удара
1008.3 953.1
12 18.06 СВ 1 50 км 8/8 1000 м
[Sc diur, vesp]
+28.2 +14.3 43 +30 +34 жарко 1007.8 952.5
15 18.06 С 2 50 км 10/8 1000 м
[Sc Ci fib]
+27.2 +13.4 43 +29 +30 жарко 1008.1 952.6 +30.5
18 18.06 штиль 0 50 км ясно +19.1 +14.0 72 +20 +20 1010.5 953.4
21 18.06 Ю 1 50 км ясно +14.9 +14.9 100 +15 +15 1011.8 953.8
00 19.06 штиль 0 50 км ясно +13.5 +13.5 100 +13 +13 1012.0 953.7
03 19.06 штиль 0 50 км ясно +13.4 +13.4 100 +13 +14 1011.6 953.3 +12.6
06 19.06 ЮЗ 1 50 км ясно +22.6 +15.1 63 +26 +39 жарко 1009.3 952.9
09 19.06 СВ 2 50 км 1/1 1500 м
[Cu hum]
+30.4 +11.7 32 +31 +48 жарко 1007.5 952.6
12 19.06 СВ 1 50 км 6/5 1000 м
[Cu hum Ci fib]
+30.1 +11.9 33 +31 +38 жарко 1006.8 951.9
15 19.06 штиль 0 50 км 5/5 1000 м
[Sc]
+26.1 +16.7 56 +30 +31 душно 1007.2 951.6 +32.5
18 19.06 штиль 0 50 км 3/0
[Ac cast Ci fib]
+19.8 +13.8 68 +21 +21 комфорт 1009.6 952.6
21 19.06 штиль 0 50 км 1/0
[Ac lent]
+16.1 +13.7 86 +16 +16 1010.3 952.6
00 20.06 штиль 0 50 км 1/0
[Ac lent]
+13.8 +13.8 100 +13 +13 1010.5 952.4

 

Местоположение метеостанции Даховская (Адыгея, Россия): широта 44.67 долгота 40.75 высота над уровнем моря 264 м.

В архиве по умолчанию представлена погода в Даховской за последнюю неделю. Архивные данные за месяц целиком и за предыдущие месяцы, начиная с января 2011 года, Вы можете получить, выбрав интересующий диапазон дат из раскрывающегося списка и нажав кнопку "Ввод!".


*Определитесь, кто Вы:
робот инопланетянин человек

Внимание! Время в таблицах - всемирное. Для получения местного времени необходимо прибавить поправку, которая равна 3 ч.

Смотрите также архив погоды в соседних городах и на ближайших метеорологических станциях:

Погода в Дондуковской (Адыгея, Россия) (38 км)
Погода в Армавире (Краснодарский край, Россия) (45 км)
Погода в Майкопе (Адыгея, Россия) (53 км)
Погода в Шунтуке (Адыгея, Россия) (55 км)
Погода в Псебае (Краснодарский край, Россия) (60 км)
Погода в Отрадной (Краснодарский край, Россия) (65 км)
Погода в Белореченске (Краснодарский край, Россия) (68 км)
Погода в Кропоткине (Краснодарский край, Россия) (86 км)
Погода в Гузерипле (Адыгея, Россия) (89 км)
Погода в Невинномысске (Ставропольский край, Россия) (97 км)

Пояснения к столбцам:

Ветер - указаны скорость ветра в м/с - средняя за 10 мин, порывы в срок и между сроками (в фигурных скобках) и направление, откуда дует ветер: С - северный, СВ - северо-восточный, В - восточный, ЮВ - юго-восточный, Ю - южный, ЮЗ - юго-западный, З - западный, СЗ - северо-западный.
Видимость - горизонтальная дальность видимости в метрах или километрах. При видимости от 1 до 10 км при отсутствии осадков обычно наблюдается дымка, при ухудшении видимости до 1 км и менее - туман. В сухую погоду видимость может ухудшаться дымом, пылью или мглою.
Явления - указаны атмосферные явления, наблюдавшиеся в срок или в последний час перед сроком; фигурными скобками обозначены явления, наблюдавшиеся между сроками (за 1-3 часа до срока); квадратными скобками обозначены град или гололедные отложения с указанием их диаметра в мм.
Облачность - указаны через наклонную черту общая и нижняя облачность в баллах и высота нижней границы облаков в метрах; квадратными скобками обозначены формы облаков: Ci - перистые, Cs - перисто-слоистые, Cc - перисто-кучевые, Ac - высококучевые, As - высокослоистые, Sc - слоисто-кучевые, Ns - слоисто-дождевые, Cu - кучевые, Cb - кучево-дождевые. Подробнее классификацию облаков см. в Атласе облаков (PDF).
T - Температура воздуха - температура, измеренная на высоте 2 м над землей.
Td - Температура точки росы - температура, при понижении до которой содержащийся в воздухе водяной пар достигнет насыщения.
f - Относительная влажность воздуха - влажноcть воздуха, измеренная на высоте 2 м над землей.
Te - Эффективная температура - температура, которую ощущает одетый по сезону человек в тени. Характеристика душности погоды. При расчете учитывается влияние влажности воздуха и скорости ветра на теплоощущения человека.
Tes - Эффективная температура на солнце - температура, которую ощущает человек, с поправкой на солнечный нагрев. Характеристика знойности погоды. Зависит от высоты солнца над горизонтом, облачности и скорости ветра. Ночью, в пасмурную погоду, а также при ветре 12 м/с и более поправка равна нулю.
P - Атмосферное давление - приведенное к уровню моря атмосферное давление.
Po - Атмосферное давление - измеренное на уровне метеостанции атмосферное давление.
Tmin - Минимальная температура - минимум температуры воздуха на высоте 2 м над землей.
Tmax - Максимальная температура - максимум температуры воздуха на высоте 2 м над землей.
R - Количество осадков - Количество выпавших осадков за период времени, мм. При наведении курсора мыши на число - период времени, за который выпало указанное количество осадков.
R24 - Количество осадков - Количество выпавших осадков за 24 часа, мм.
S - Снежный покров - Высота снежного покрова, см. При наведении курсора мыши на число - состояние снежного покрова и степень покрытия местности в баллах.